GFSNIL_925_spd_000.txt.gz
Wind_Speed
13 13 15 17 22 25 25 24 19 10 7 6 8 9 6 6 7 7 10 10 11 10
18 19 21 22 24 25 24 20 9 9 2 13 6 8 11 12 10 10 12 12 12 13
20 21 22 24 26 25 18 7 7 2 6 4 5 11 14 12 12 14 13 12 12 11
17 19 22 24 23 20 12 7 10 10 12 8 12 12 12 13 14 15 13 10 10 12
14 17 20 22 20 17 8 10 11 10 11 17 13 10 11 13 14 13 12 11 12 17
14 17 19 20 19 16 12 8 12 17 12 9 11 11 11 13 13 12 11 14 19 21
15 17 20 20 18 17 18 18 13 11 11 11 12 12 11 11 10 12 16 19 20 20
16 18 20 21 18 17 16 14 15 15 8 11 11 10 8 9 13 17 20 21 22 22
17 19 22 22 19 17 12 12 10 10 12 9 3 5 7 11 16 20 19 22 20 21
17 20 23 20 17 15 14 17 15 17 8 1 5 9 11 14 17 17 17 17 21 21
17 21 24 20 18 18 18 17 13 9 2 4 7 10 14 16 16 17 19 18 17 19
17 22 23 19 18 18 16 13 6 4 3 5 7 11 12 12 15 16 17 16 18 15
17 22 20 17 16 12 7 7 8 6 2 3 7 10 11 10 12 14 17 20 17 15
19 20 17 16 14 14 10 8 7 4 2 4 7 9 9 9 11 14 16 18 19 18

GFSNIL_925_spd_003.txt.gz
Wind_Speed
12 12 13 15 17 19 19 20 21 12 11 7 2 0 3 6 7 7 7 9 8 9
12 15 17 20 22 22 22 18 12 8 9 3 1 11 7 8 9 8 10 11 10 10
13 16 20 22 23 22 20 15 6 9 5 7 12 7 10 9 10 12 11 11 10 10
13 16 18 20 20 19 16 12 6 9 8 15 7 10 8 9 10 12 12 11 9 11
11 13 16 18 18 16 13 10 7 9 11 12 14 7 9 11 10 13 10 10 11 15
9 13 15 17 18 16 13 11 13 14 14 10 11 9 12 12 11 10 9 11 13 17
9 13 15 18 18 16 13 12 10 12 13 13 8 11 9 8 8 9 11 14 15 17
11 14 16 20 20 16 13 9 12 12 8 9 9 6 4 6 8 12 15 16 16 16
12 15 17 21 20 16 14 11 12 13 9 6 5 7 6 9 9 12 13 15 16 17
15 17 17 21 19 14 14 13 12 11 7 5 2 6 10 14 10 11 13 14 15 14
17 17 17 20 16 14 14 13 11 9 6 4 3 7 12 16 11 11 12 13 13 14
19 19 17 17 15 15 14 10 8 6 6 3 2 8 12 13 10 11 12 12 13 14
19 18 16 16 16 15 13 11 8 7 5 3 5 9 11 10 9 11 13 13 13 12
20 18 18 18 15 13 12 9 8 8 6 6 7 8 9 9 8 10 13 13 14 12

GFSNIL_925_spd_006.txt.gz
Wind_Speed
7 7 8 10 12 14 16 17 18 16 10 6 5 3 6 12 9 9 10 11 13 16
5 5 7 10 13 14 15 16 15 11 5 5 4 9 11 11 9 8 11 14 16 17
3 4 8 12 14 14 15 15 14 9 7 7 12 12 13 11 9 9 13 15 16 18
2 5 8 11 13 14 14 14 12 10 10 13 16 17 15 11 11 11 14 16 17 17
2 4 7 11 13 13 14 13 12 11 13 17 19 15 9 11 13 14 16 17 17 19
2 4 8 11 13 14 14 13 12 13 13 13 11 11 11 12 13 13 15 16 17 20
5 6 8 11 13 14 13 12 11 11 13 12 11 10 11 11 11 12 15 16 18 20
7 8 9 11 14 15 13 12 11 10 9 9 8 6 5 9 12 15 15 17 17 17
9 10 11 13 14 15 14 13 13 14 11 9 6 8 7 7 11 13 15 16 16 16
11 11 13 13 14 15 13 13 14 15 11 10 6 7 8 10 10 13 13 13 14 14
11 13 14 14 15 15 13 13 12 12 10 8 6 6 8 12 10 12 11 12 12 13
12 14 15 16 16 16 14 13 13 10 8 8 6 7 8 10 10 10 11 11 11 12
12 14 17 17 17 16 14 13 10 8 7 8 6 7 8 9 9 9 11 11 11 10
13 15 17 17 17 17 14 11 7 7 8 8 7 6 7 8 6 8 11 12 13 12

GFSNIL_925_spd_009.txt.gz
Wind_Speed
5 5 3 5 7 8 10 12 14 15 15 13 8 5 6 11 12 13 14 11 14 15
5 5 3 4 6 8 10 12 13 14 13 7 10 9 13 13 15 15 9 11 14 15
5 3 1 4 7 8 10 11 13 13 13 11 11 14 16 18 16 13 12 13 14 17
7 4 3 4 6 9 11 12 13 13 13 14 15 18 19 17 17 15 13 14 17 18
8 6 5 6 7 9 11 12 13 12 13 15 17 17 14 14 13 15 15 16 17 20
9 8 7 8 9 10 11 13 12 12 14 14 13 14 15 14 14 14 15 16 17 19
10 9 9 9 10 11 12 13 12 12 12 13 12 12 13 13 14 15 17 16 19 21
10 10 11 11 12 12 12 12 12 12 13 11 12 9 7 12 14 13 16 18 19 18
9 11 12 13 13 13 13 13 13 13 12 12 12 8 10 7 10 13 16 18 17 16
10 11 13 14 15 15 14 13 14 13 13 10 8 9 9 8 9 13 15 15 15 15
10 12 14 16 16 16 15 15 13 13 11 10 6 10 9 8 9 13 13 13 13 13
11 13 15 16 17 17 16 17 15 13 10 10 6 9 8 7 9 11 11 11 11 10
12 14 16 17 18 18 17 18 15 12 9 9 6 10 11 7 7 10 10 11 10 10
12 15 16 17 17 18 18 16 9 7 8 8 7 9 10 9 6 8 9 10 11 9

GFSNIL_925_spd_012.txt.gz
Wind_Speed
13 11 9 6 3 0 4 7 10 9 11 11 6 10 7 8 13 11 12 12 12 8
13 13 10 6 3 2 4 7 9 10 11 13 9 10 11 11 14 15 10 6 7 8
15 12 9 6 3 2 6 7 9 10 11 13 13 10 11 14 13 13 12 13 11 7
16 14 10 7 4 3 6 8 10 11 11 12 13 15 13 15 17 15 12 10 11 18
16 13 10 7 4 5 6 8 10 12 12 13 14 10 12 14 14 13 12 13 12 13
17 13 9 6 5 6 7 9 11 12 14 12 11 11 12 12 8 11 10 8 11 14
17 12 7 5 7 8 8 9 12 14 16 11 11 11 11 7 8 10 11 12 11 15
11 8 6 7 9 10 9 11 13 14 16 11 11 11 6 7 8 9 12 13 14 13
5 5 2 8 12 13 14 14 12 13 14 12 9 11 10 10 7 8 11 12 14 14
5 0 16 12 15 14 15 15 13 14 13 11 9 11 11 10 7 9 10 13 12 12
6 9 13 12 14 16 15 14 14 14 13 10 6 9 11 9 6 6 10 11 12 11
11 8 14 12 12 14 17 16 16 15 12 6 7 9 10 7 5 6 10 10 11 12
14 18 14 14 14 15 15 15 16 13 4 5 6 8 9 9 6 7 8 9 10 13
15 12 13 14 12 14 17 17 18 9 5 5 7 9 11 12 10 7 8 8 9 8

GFSNIL_925_spd_015.txt.gz
Wind_Speed
17 15 13 12 8 5 2 2 4 4 7 7 8 7 11 10 12 11 8 11 10 8
17 17 15 11 7 5 0 3 6 8 8 9 8 10 11 11 11 9 11 13 9 5
17 15 12 10 8 5 2 4 5 7 9 9 10 9 9 7 5 9 10 3 1 5
14 13 11 10 7 6 3 4 5 7 10 10 10 11 7 8 8 6 2 1 2 2
16 15 11 10 9 5 6 4 5 8 10 12 13 5 10 12 10 2 5 6 6 7
18 16 14 11 7 8 5 6 7 10 12 12 9 10 10 10 1 1 3 4 8 7
20 19 16 13 9 6 7 8 9 12 14 16 11 10 9 8 5 5 3 4 7 8
20 21 15 7 1 9 10 12 15 15 17 16 16 13 13 12 12 8 9 7 8 10
19 16 11 5 11 13 14 18 23 19 17 16 13 14 14 12 11 8 8 7 8 11
22 13 7 3 9 18 19 21 21 21 21 17 14 13 13 11 10 8 6 7 9 11
14 7 7 8 19 15 14 16 16 20 19 17 15 12 12 11 10 7 7 7 9 11
11 10 7 9 11 18 17 17 14 15 16 14 13 12 11 11 9 7 7 9 10 10
11 6 3 16 19 16 13 14 15 15 12 13 13 12 12 11 9 9 8 10 9 10
5 2 13 14 14 15 18 17 17 19 14 12 10 10 11 12 12 10 9 12 13 11

GFSNIL_925_spd_018.txt.gz
Wind_Speed
32 27 21 16 13 12 9 5 4 4 5 5 3 4 7 8 6 7 7 6 8 9
23 20 17 14 11 9 6 3 1 2 5 6 6 6 6 9 10 10 10 12 9 6
22 18 16 13 10 8 4 2 2 3 5 7 8 9 8 6 6 7 9 6 6 9
24 21 18 15 14 6 5 1 3 4 7 8 8 9 9 6 8 7 6 4 5 5
27 24 21 17 13 11 7 5 5 5 8 9 10 11 8 8 8 8 7 6 5 4
27 25 23 20 17 15 10 8 7 8 9 10 11 12 12 13 12 9 7 5 5 5
30 28 24 22 21 13 11 10 8 11 10 11 12 14 18 14 11 11 10 7 7 10
31 28 26 23 18 10 9 5 10 12 18 18 18 19 22 19 16 13 10 8 7 8
30 28 22 21 15 8 3 5 12 17 22 25 23 22 22 21 18 16 13 10 9 10
25 29 23 15 12 8 5 9 19 25 24 22 26 23 22 20 16 11 12 12 9 9
29 23 18 13 11 8 6 13 16 20 20 21 21 21 20 19 16 14 15 12 10 11
26 21 13 9 7 5 15 18 14 14 16 17 16 18 19 18 16 12 14 11 11 12
18 14 8 4 5 11 12 15 16 17 18 18 16 16 18 19 15 15 13 12 11 11
7 2 3 6 11 12 14 15 20 19 18 18 17 18 18 18 18 17 15 14 12 12

GFSNIL_925_spd_021.txt.gz
Wind_Speed
37 35 35 29 23 19 15 10 7 5 6 4 5 5 8 7 4 5 5 7 8 9
35 35 33 27 21 18 14 13 12 4 3 6 5 5 5 7 7 7 8 9 12 12
32 34 31 27 24 22 21 17 9 10 7 5 6 5 4 6 6 6 9 12 12 10
36 34 29 27 25 24 18 12 11 9 5 5 7 5 6 6 5 8 8 9 10 11
35 33 31 29 26 23 17 14 11 8 5 3 6 7 8 10 10 10 10 11 12 10
35 36 34 30 27 22 19 15 12 8 5 3 8 11 11 14 15 14 13 15 15 14
39 38 35 30 29 25 21 17 11 8 5 10 11 12 14 17 20 18 16 17 17 15
39 35 32 30 27 25 19 14 9 6 8 17 15 18 20 21 23 21 17 16 13 12
34 30 29 27 22 15 11 6 3 8 15 19 22 25 24 25 25 24 18 17 13 15
28 25 23 21 19 15 9 2 13 13 18 19 21 20 20 22 24 24 21 16 13 16
20 25 25 22 15 9 4 11 12 16 19 17 17 17 17 19 22 23 19 18 15 16
31 27 18 10 7 9 13 12 13 16 17 19 20 19 18 18 21 22 21 17 16 16
21 13 9 4 11 11 11 13 14 18 21 23 23 17 17 17 21 22 20 20 18 17
9 6 8 12 10 9 13 15 18 21 19 17 17 18 18 20 23 24 24 22 21 20

GFSNIL_925_spd_024.txt.gz
Wind_Speed
35 36 36 36 35 34 29 23 18 14 11 6 6 3 8 8 9 9 10 10 12 11
37 38 39 36 36 33 27 22 19 16 7 8 6 7 10 12 12 10 10 11 14 15
39 37 38 37 37 31 27 24 19 12 9 9 9 9 8 10 12 11 9 9 11 13
35 34 34 35 36 33 27 24 20 14 14 12 11 10 10 12 13 12 10 9 10 12
29 28 30 35 34 30 29 24 17 16 15 12 11 9 12 14 16 14 13 11 11 14
30 32 35 36 34 31 28 21 20 18 15 11 5 11 13 14 15 16 18 17 16 17
36 37 36 35 33 30 25 23 20 16 13 7 5 13 15 17 18 20 22 22 21 19
29 31 31 32 30 28 26 23 21 19 12 6 11 17 18 21 25 26 26 23 22 21
27 27 26 26 24 22 20 17 13 8 2 11 15 18 21 21 25 26 29 27 24 20
20 20 21 22 21 19 16 12 4 2 13 18 17 21 20 20 22 25 26 30 26 22
17 17 16 20 21 13 9 9 6 12 18 16 20 20 20 20 22 24 26 28 26 23
20 25 24 19 11 6 4 8 13 15 13 18 25 23 25 24 24 24 24 25 25 23
25 19 14 8 5 8 12 15 14 16 18 21 25 20 21 20 21 20 22 23 23 24
12 7 1 7 14 13 13 13 15 19 22 24 21 20 20 21 22 22 24 27 27 26

GFSNIL_925_spd_027.txt.gz
Wind_Speed
37 35 32 32 35 37 35 32 30 25 22 19 10 11 15 13 11 9 10 9 8 8
37 36 35 35 37 37 34 32 29 26 23 16 16 17 15 10 9 9 9 9 10 11
35 37 35 35 37 35 33 30 30 26 21 15 19 16 14 9 10 11 11 12 11 11
35 33 33 34 34 34 32 33 31 27 20 20 18 13 9 8 11 14 14 15 14 12
29 28 31 31 35 34 35 36 32 28 24 23 16 12 8 8 14 17 17 17 16 15
19 19 20 22 28 29 34 33 29 24 22 19 14 10 11 9 16 20 21 20 19 18
16 16 16 19 22 28 32 32 27 21 16 14 9 6 8 14 19 22 23 25 24 22
13 13 14 18 24 27 27 27 25 24 20 14 5 8 16 17 19 21 24 27 29 27
7 9 14 17 18 18 21 22 21 21 20 14 10 16 17 20 20 23 24 24 24 28
6 8 10 12 13 16 19 17 17 14 8 7 14 20 18 20 25 23 22 22 22 20
7 8 10 12 15 17 18 13 10 9 11 16 21 20 20 23 27 25 26 25 23 21
14 16 18 19 19 15 10 8 11 13 17 21 25 21 22 25 23 23 24 23 24 22
17 17 16 12 10 5 4 7 13 20 22 22 19 22 25 22 20 23 22 23 23 23
12 9 6 3 1 5 7 9 11 14 17 19 22 26 24 23 24 23 22 19 19 22

GFSNIL_925_spd_030.txt.gz
Wind_Speed
26 25 24 23 26 27 25 29 25 27 25 20 21 20 15 12 13 12 10 10 11 10
26 27 24 25 30 31 28 25 31 29 26 21 21 18 14 13 13 12 11 12 12 11
25 25 22 22 27 30 28 22 22 24 23 21 22 19 15 14 13 12 10 13 13 12
22 21 25 22 21 21 22 23 25 32 33 27 27 15 17 13 12 13 10 13 15 14
15 17 18 19 18 18 20 25 32 31 26 26 19 17 15 13 8 6 14 18 18 17
13 12 14 14 14 19 24 28 27 27 26 22 21 18 16 11 7 17 17 18 20 20
10 10 11 12 12 13 15 18 23 27 24 21 18 16 13 8 12 16 17 19 21 22
4 5 6 7 9 10 13 16 22 24 23 17 19 12 4 7 15 16 18 21 24 27
4 4 4 6 8 10 13 16 21 20 23 17 11 9 13 14 14 18 21 24 24 25
6 6 6 7 8 10 12 15 16 15 14 16 13 17 19 19 19 19 22 23 25 26
10 10 10 10 11 11 13 15 15 15 15 11 16 19 21 22 23 19 24 26 27 28
13 14 13 12 11 10 10 8 8 7 10 15 18 19 24 21 17 22 25 24 25 26
15 14 13 10 7 5 2 1 3 7 10 16 17 15 18 20 20 22 24 25 26 26
12 11 8 6 4 2 2 3 4 6 8 11 13 15 16 18 17 20 24 26 28 26

GFSNIL_925_spd_033.txt.gz
Wind_Speed
29 27 22 21 19 21 22 23 22 28 28 26 28 24 17 19 16 18 12 14 11 13
24 24 23 20 22 24 31 32 28 22 24 31 26 22 22 19 20 15 14 11 9 13
25 23 23 21 23 26 23 20 19 24 23 26 28 28 24 24 19 16 13 11 11 14
20 22 24 22 20 19 17 18 21 23 24 28 33 28 26 20 17 15 12 7 10 19
20 21 23 21 17 19 19 20 22 22 24 28 30 23 19 18 14 14 9 9 18 21
13 14 15 15 18 16 18 18 20 24 24 25 23 18 20 17 15 6 8 20 19 22
10 11 12 12 10 11 15 17 16 18 23 20 19 18 16 15 9 9 21 22 21 20
7 7 7 7 8 9 11 9 10 16 16 21 17 18 17 12 13 18 20 21 21 22
8 7 6 6 6 7 7 8 11 15 15 19 18 16 17 18 15 14 16 19 22 24
10 10 9 9 9 8 8 10 13 17 20 22 17 16 18 15 16 18 22 25 27 24
12 12 11 11 10 9 9 10 11 11 11 11 9 10 14 19 20 21 25 22 22 25
14 15 14 14 12 11 9 8 6 5 6 6 9 13 14 15 17 17 21 23 24 25
15 15 14 13 11 9 8 7 5 3 3 7 11 10 7 8 13 18 21 22 24 26
14 13 12 9 7 6 5 4 3 1 2 4 5 6 6 11 11 14 21 23 25 25

GFSNIL_925_spd_036.txt.gz
Wind_Speed
39 30 21 26 24 27 30 33 31 30 30 29 29 30 26 30 27 24 20 17 15 14
31 32 25 34 32 26 30 31 28 30 32 27 27 27 31 31 24 21 18 14 13 14
33 35 29 29 33 22 27 25 25 28 24 24 25 30 32 26 23 17 15 14 12 7
40 40 25 31 25 22 17 17 20 20 23 27 24 28 27 25 19 18 16 14 8 7
30 24 25 26 21 18 15 17 17 20 25 22 25 27 28 23 16 17 15 14 10 13
20 21 21 18 18 14 13 14 17 20 23 25 24 22 24 17 19 16 17 13 12 21
16 13 9 9 10 13 15 16 16 20 25 23 20 21 18 19 19 16 11 13 16 24
15 10 10 11 10 8 8 9 11 14 15 16 18 18 18 19 20 16 13 18 19 19
14 15 15 15 14 12 11 10 9 11 13 15 19 21 19 19 15 12 14 15 19 24
15 15 15 14 14 14 13 12 11 13 15 17 16 17 19 16 13 12 15 20 24 28
16 17 16 16 15 14 14 12 13 12 13 13 11 11 10 10 12 15 18 20 18 22
18 18 18 17 16 15 15 13 12 11 11 8 8 5 7 10 9 9 11 13 15 17
19 19 19 18 18 17 15 14 10 9 8 6 3 6 4 3 4 7 11 17 23 26
21 20 17 14 14 14 12 10 8 7 5 4 8 7 2 3 6 9 14 16 18 19

GFSNIL_925_spd_039.txt.gz
Wind_Speed
41 39 41 36 29 29 27 30 36 34 36 32 34 33 33 29 27 26 29 25 23 16
46 42 38 41 30 33 35 32 31 34 33 33 33 31 25 24 27 31 26 23 17 17
48 48 44 32 37 32 29 30 34 35 32 29 27 23 20 26 29 28 24 18 16 14
46 51 47 41 34 19 25 32 29 30 23 24 24 22 22 28 29 25 17 14 13 14
29 18 17 21 24 20 34 27 23 23 23 24 24 22 24 28 26 21 17 15 16 11
28 29 31 24 24 28 24 19 18 18 21 24 26 24 23 23 23 17 17 17 13 12
24 23 24 24 24 23 20 18 18 19 23 25 24 21 19 20 17 16 17 15 15 7
26 24 23 22 19 16 14 14 14 19 24 24 21 17 16 17 17 18 17 16 13 11
24 22 19 18 15 14 12 10 12 14 17 17 15 14 15 16 18 18 16 12 13 14
27 25 22 19 18 15 14 12 11 12 13 14 13 15 17 16 17 14 10 8 11 18
27 26 25 23 22 20 17 15 15 15 14 15 17 16 16 13 10 8 8 9 10 11
26 27 26 23 21 19 19 18 16 16 16 16 15 14 10 9 7 5 4 4 7 12
26 24 24 23 23 21 20 19 17 16 15 16 15 11 8 7 7 4 6 10 13 14
28 28 27 26 25 24 21 19 16 13 11 13 14 12 9 6 2 2 7 11 13 14

GFSNIL_925_spd_042.txt.gz
Wind_Speed
43 39 40 40 39 40 42 40 39 40 37 35 37 38 39 38 39 36 30 29 27 29
44 45 39 43 43 42 44 44 39 33 30 31 32 39 40 39 38 32 29 28 27 28
42 39 42 39 43 39 40 34 23 24 24 28 30 38 39 33 30 27 26 27 27 22
40 41 35 33 28 27 21 13 23 26 29 28 31 32 29 28 26 24 25 27 22 17
22 28 24 21 28 32 19 16 39 33 31 31 32 30 28 26 24 23 25 24 18 16
29 32 36 35 35 31 33 35 42 32 32 28 29 28 26 22 19 21 25 21 18 18
36 35 36 33 37 32 38 38 32 29 27 25 25 23 20 19 18 20 21 18 19 18
35 30 28 27 29 29 29 30 27 25 23 22 23 22 20 19 20 20 18 18 18 15
24 26 29 27 26 28 26 24 25 25 24 24 23 20 19 18 20 18 18 19 15 10
28 28 29 29 27 26 23 20 17 18 20 21 19 17 17 16 18 18 18 15 8 5
30 28 30 30 29 26 22 19 19 19 19 19 17 18 18 17 18 17 12 8 7 7
31 31 31 29 27 25 23 21 21 20 20 21 21 19 18 18 15 12 10 7 4 7
29 29 28 27 25 23 23 23 22 20 19 20 20 16 16 14 13 12 8 4 3 7
26 26 25 26 26 27 27 26 24 22 20 20 18 15 12 9 10 7 3 2 5 6

GFSNIL_925_spd_045.txt.gz
Wind_Speed
38 36 40 36 32 35 40 40 42 40 38 40 36 27 35 36 36 37 36 37 38 34
37 39 35 34 31 35 40 41 38 36 38 38 31 32 44 32 33 39 38 39 37 31
34 36 37 32 33 38 40 39 39 38 31 27 27 40 43 41 33 35 39 40 33 29
36 33 32 36 39 41 36 34 32 30 21 21 27 35 32 33 32 33 35 31 27 26
38 38 39 43 48 41 40 35 33 27 27 37 32 31 30 32 32 33 30 26 24 22
40 42 47 50 42 41 38 36 37 33 36 39 34 34 32 33 30 27 25 23 20 21
40 46 44 42 38 37 39 41 43 39 38 36 31 30 29 28 24 20 19 19 21 19
39 35 34 34 37 34 33 36 38 39 35 30 30 28 27 23 21 19 19 19 18 15
32 33 33 32 33 30 31 31 31 30 29 28 23 22 20 19 19 19 19 18 16 16
29 28 27 26 26 27 29 28 24 24 23 20 19 19 19 18 18 18 18 19 21 16
24 24 24 26 26 26 24 22 20 18 17 18 18 19 19 18 18 19 19 20 16 12
26 27 28 29 29 26 24 21 18 17 17 19 19 19 20 20 22 22 18 14 11 9
25 26 25 23 23 22 21 20 19 18 18 19 21 19 20 21 21 17 13 9 5 2
23 23 22 22 21 22 22 23 23 22 20 22 21 18 17 16 15 13 11 6 4 4

GFSNIL_925_spd_048.txt.gz
Wind_Speed
38 37 41 36 34 36 38 39 39 36 33 31 32 34 35 32 25 27 30 34 38 40
37 38 34 34 34 34 34 33 34 35 34 34 35 33 29 27 22 28 35 37 39 37
36 33 33 28 30 34 36 37 36 36 36 36 35 32 30 37 27 37 44 41 36 35
33 37 37 36 40 35 39 43 43 41 39 35 35 35 37 30 28 30 34 34 32 32
39 36 33 34 40 43 38 33 39 41 37 39 36 37 31 26 23 26 31 32 29 29
39 39 40 41 46 40 35 39 41 35 41 42 38 36 29 29 28 27 30 28 26 24
39 43 43 42 42 40 35 40 40 40 40 38 41 38 33 29 24 26 25 24 23 22
40 39 40 41 40 36 36 39 38 36 35 37 38 35 32 27 25 24 20 18 18 18
33 35 38 37 34 34 36 35 34 36 38 39 38 32 29 25 23 23 20 18 16 16
31 32 33 32 30 33 33 33 35 36 36 32 30 25 22 20 21 19 18 19 21 21
32 29 27 29 28 30 31 31 29 27 26 23 19 18 17 16 16 16 16 19 23 21
25 24 24 23 24 22 22 20 20 20 18 16 15 16 18 19 20 21 20 20 18 16
23 23 24 23 22 21 21 21 19 18 15 16 20 18 17 18 23 25 22 17 13 10
17 18 19 21 21 23 25 24 23 22 19 19 18 16 15 18 22 22 18 14 10 6

GFSNIL_925_spd_051.txt.gz
Wind_Speed
35 33 32 34 32 31 29 27 33 34 33 33 31 29 30 29 27 26 26 25 25 27
34 35 34 35 34 37 39 38 37 37 37 38 35 33 33 31 29 26 27 29 27 25
36 35 35 32 37 40 40 41 41 40 39 38 38 36 34 30 26 24 26 32 29 31
37 37 37 40 47 52 48 48 47 45 41 38 38 36 34 31 30 31 31 34 35 31
36 37 40 42 40 35 36 42 44 33 34 34 32 34 36 33 31 34 30 32 28 30
35 38 42 42 41 38 41 38 33 33 34 34 36 34 34 33 34 30 30 32 29 28
39 44 42 39 37 37 39 36 34 33 31 33 32 31 29 31 31 31 29 27 25 25
38 35 35 34 34 34 35 35 33 30 28 29 28 31 32 31 33 32 30 25 20 21
31 32 33 34 34 33 33 31 29 33 33 30 33 37 35 36 33 32 26 22 21 20
29 30 30 29 29 31 30 27 29 29 29 33 35 35 36 33 29 25 24 24 24 22
28 28 24 24 26 25 24 26 28 30 31 33 32 30 24 26 22 20 21 23 24 25
26 23 21 21 22 24 24 23 23 22 23 22 17 17 25 24 23 24 22 22 24 27
18 20 19 18 20 19 18 17 16 15 13 15 20 22 23 24 26 26 25 22 22 20
20 21 19 19 17 18 18 20 21 22 21 21 22 20 17 18 24 27 26 24 19 15

GFSNIL_925_spd_054.txt.gz
Wind_Speed
39 38 35 35 37 35 36 35 35 28 27 26 24 24 22 21 22 21 22 23 22 23
38 38 39 37 36 36 37 37 36 33 33 31 28 28 27 27 26 25 27 25 25 25
40 41 38 37 38 39 38 39 38 38 36 34 33 32 31 31 30 30 29 27 26 23
38 40 40 39 40 41 40 39 40 41 40 39 40 37 35 35 35 33 32 28 25 23
35 36 38 40 41 39 40 38 39 38 41 42 40 38 36 35 32 32 31 28 25 26
37 38 40 42 41 39 37 37 36 38 39 39 37 36 34 33 32 32 29 28 30 31
38 42 42 37 36 37 37 35 37 37 37 36 35 34 35 33 32 32 28 28 28 26
39 37 35 35 35 34 34 35 35 33 33 33 33 33 33 30 29 28 28 30 30 25
34 34 36 35 33 32 33 34 33 33 34 33 32 33 35 31 28 26 31 33 34 33
32 33 33 31 32 34 33 31 32 32 32 33 32 31 33 33 31 31 31 32 29 26
31 31 29 28 29 28 28 29 28 26 26 26 28 32 35 34 31 28 26 27 26 27
29 27 27 27 25 24 23 19 20 21 23 28 31 30 28 25 25 20 19 20 22 26
26 26 25 24 21 20 19 20 17 14 12 11 13 12 19 25 25 25 23 20 19 20
20 20 19 18 19 21 20 19 17 15 13 14 15 18 18 19 25 28 26 24 24 22

GFSNIL_925_spd_057.txt.gz
Wind_Speed
34 33 34 35 35 36 36 35 34 32 33 32 29 29 30 29 29 31 24 23 24 22
34 33 34 33 35 38 38 36 34 35 35 34 32 30 29 27 27 25 25 24 26 27
36 36 34 34 35 36 37 37 37 38 37 35 33 32 31 29 28 28 27 27 28 29
37 37 38 37 38 37 36 40 40 39 39 39 37 36 35 34 34 33 32 32 32 32
35 38 38 41 39 40 38 37 37 39 35 37 38 38 37 36 35 35 36 36 35 35
35 36 39 42 42 38 39 38 38 37 37 40 38 37 38 39 38 38 37 37 37 36
37 40 40 38 38 39 39 38 39 39 40 40 39 40 40 39 39 38 36 35 36 35
40 38 36 36 37 37 37 39 38 37 39 39 40 40 39 38 39 36 34 36 36 35
33 35 37 36 36 35 36 36 35 37 37 37 38 39 40 39 32 32 33 33 34 32
34 35 37 36 35 37 37 34 36 36 35 36 35 35 38 36 37 30 30 29 26 31
33 34 33 33 36 35 35 35 34 33 33 32 31 32 33 36 39 36 34 32 36 37
32 32 32 33 34 33 31 29 29 27 27 26 25 26 26 25 34 30 26 24 24 26
30 31 30 29 27 26 26 24 23 17 15 16 17 19 22 25 28 22 17 14 12 15
27 27 27 25 24 19 18 19 17 16 11 11 9 8 13 19 19 20 21 22 22 21

GFSNIL_925_spd_060.txt.gz
Wind_Speed
33 30 30 35 36 36 34 31 31 35 39 33 32 34 33 33 33 34 32 31 30 27
34 34 33 33 36 37 37 32 31 31 35 42 31 35 35 35 34 34 35 35 34 33
36 36 34 35 36 37 38 39 34 33 34 39 40 39 35 33 36 35 35 34 34 33
36 36 36 38 38 40 40 40 40 39 39 38 35 36 35 34 33 33 33 34 33 35
36 36 37 39 38 39 40 39 42 44 41 41 42 39 38 38 36 36 34 36 36 37
38 40 42 43 41 40 40 39 40 41 43 42 41 41 43 42 40 39 39 40 40 39
38 41 44 41 40 42 42 43 42 43 44 45 43 42 44 43 42 42 42 43 42 41
35 36 35 38 41 41 42 41 43 41 43 42 41 45 45 43 42 41 41 42 43 42
32 33 37 37 37 36 41 42 40 42 43 42 44 46 48 45 39 40 39 39 39 41
32 34 37 37 35 37 39 38 41 42 40 41 42 44 45 45 44 38 37 36 36 35
33 34 36 34 37 39 39 38 38 38 39 38 40 38 42 42 42 42 39 35 33 33
32 34 34 33 37 37 34 35 36 34 34 36 34 36 36 36 37 33 28 27 28 24
27 33 33 34 33 33 32 30 30 29 21 23 26 26 31 30 28 24 17 10 6 5
30 20 32 32 31 30 26 27 20 19 14 11 8 5 10 18 22 23 21 21 22 21

GFSNIL_925_spd_063.txt.gz
Wind_Speed
31 32 31 34 32 32 29 30 34 37 40 36 30 30 33 34 31 35 39 38 35 31
29 31 31 33 34 34 33 33 26 36 39 43 39 31 32 33 35 33 35 36 35 36
32 30 31 33 35 35 35 36 33 32 35 38 41 41 34 38 39 36 39 39 40 40
32 32 32 33 36 39 38 40 41 38 39 38 38 42 43 39 40 39 41 42 40 44
29 32 33 36 35 36 39 39 42 43 39 40 40 40 43 42 37 39 38 40 40 43
36 36 36 38 36 38 38 41 40 41 46 45 44 43 42 42 40 40 41 41 40 44
38 40 40 37 35 37 39 38 41 43 44 44 43 44 46 46 42 42 43 43 43 44
41 41 41 41 42 37 40 40 40 40 42 42 44 46 44 45 46 45 45 44 44 44
33 36 40 40 40 41 42 43 39 45 42 41 45 48 49 46 43 44 43 43 42 42
30 32 38 39 38 41 43 41 45 44 42 46 45 46 47 51 51 40 39 39 37 37
28 18 30 34 38 40 40 41 43 44 46 42 44 47 49 51 50 45 42 39 41 40
23 23 28 24 35 41 40 38 39 39 37 41 44 42 46 47 48 42 36 36 35 34
26 24 26 29 32 39 39 40 35 31 33 35 34 39 42 41 40 35 28 19 17 15
26 25 25 30 31 22 30 32 30 27 18 16 16 16 15 33 34 34 25 18 15 14

GFSNIL_925_spd_066.txt.gz
Wind_Speed
31 32 29 31 29 30 31 33 40 37 37 39 38 38 38 33 33 35 36 38 32 33
31 30 30 33 31 32 32 29 33 39 40 40 37 36 37 36 34 35 39 39 39 36
33 32 32 33 34 33 36 34 30 35 39 40 38 36 34 34 36 37 40 38 40 39
30 29 30 32 37 38 37 38 34 36 39 40 42 43 41 38 36 39 40 42 41 42
31 32 30 31 31 36 36 39 42 39 39 40 42 42 43 41 38 37 37 38 40 44
29 31 33 33 31 34 37 38 39 41 42 39 38 39 43 43 41 41 40 39 39 42
30 33 34 34 34 35 36 35 37 41 41 42 42 42 42 40 41 42 43 42 43 43
29 29 29 30 32 35 36 37 36 36 38 40 41 45 44 44 45 43 43 42 44 46
24 29 33 32 32 34 37 38 38 40 40 40 43 46 48 47 42 42 42 43 43 42
22 19 16 28 31 35 38 36 37 41 39 43 44 48 50 50 49 42 41 43 42 41
25 20 20 19 15 27 37 37 41 41 43 44 46 51 51 50 52 48 47 43 43 44
22 24 25 23 22 25 26 26 39 44 42 42 46 48 49 51 48 44 45 45 46 47
20 19 19 22 28 26 26 30 31 37 39 40 42 42 47 48 45 41 38 42 41 44
22 21 19 21 20 22 25 27 18 16 14 12 12 23 29 37 45 39 37 31 20 15

GFSNIL_925_spd_072.txt.gz
Wind_Speed
18 18 17 17 19 21 22 23 29 32 32 29 27 32 34 31 33 32 33 29 28 32
16 16 18 17 17 19 21 22 26 32 32 30 31 30 31 35 37 39 34 33 29 27
16 16 17 18 17 17 19 16 21 27 29 29 29 30 31 32 35 41 41 38 40 36
17 16 15 17 18 19 17 20 19 23 28 28 30 32 33 34 34 34 32 36 38 38
15 17 17 18 18 17 19 19 20 21 24 28 31 32 35 35 32 33 35 37 34 36
17 18 21 19 19 20 20 23 24 25 25 27 30 34 37 39 40 40 42 42 39 39
18 19 21 21 21 21 22 23 27 31 33 34 35 36 35 34 37 37 37 38 40 39
5 12 17 20 23 25 26 28 28 30 32 34 36 38 38 36 36 36 36 38 40 41
11 9 8 5 3 13 23 28 31 33 33 32 36 35 37 40 37 37 37 38 39 41
14 11 10 8 6 5 5 6 5 9 20 26 31 36 39 42 44 39 38 40 41 42
17 16 14 12 11 10 10 10 11 13 15 16 13 17 17 26 39 44 44 43 43 42
16 15 15 16 15 13 12 11 11 11 14 16 17 24 23 24 23 25 38 42 40 41
16 16 16 15 13 13 12 11 11 14 17 19 20 27 25 22 17 19 21 17 8 13
19 18 18 16 16 16 16 16 18 20 22 23 25 29 28 21 17 8 10 20 25 27

GFSNIL_925_spd_075.txt.gz
Wind_Speed
17 17 16 16 15 16 20 22 26 30 35 35 34 34 34 35 34 39 36 33 32 30
18 17 15 13 12 14 18 20 21 28 27 32 36 33 34 33 32 35 37 32 31 26
15 15 15 15 14 13 14 18 19 21 28 29 31 30 30 32 33 30 31 33 35 31
12 13 13 15 15 14 13 15 18 20 24 28 31 29 29 29 31 35 35 35 34 37
10 10 12 13 13 13 14 16 17 17 20 24 23 21 23 24 29 33 32 36 37 37
9 9 10 11 12 13 13 13 16 18 20 22 21 22 26 25 24 26 30 31 32 33
7 10 10 10 11 11 13 14 16 17 18 19 20 24 27 26 27 26 27 30 32 32
12 5 3 4 7 10 13 13 14 15 18 20 21 22 26 29 32 30 31 32 34 36
14 12 10 8 6 6 4 1 5 11 17 21 12 18 25 30 28 31 32 32 34 36
15 14 14 11 9 9 9 8 9 7 8 9 2 8 7 17 28 30 26 29 32 34
14 15 14 14 13 13 12 12 11 12 12 9 12 19 17 17 15 16 22 27 29 30
15 15 15 16 15 15 14 14 15 14 16 15 17 22 18 16 12 10 7 7 6 14
15 15 16 14 15 16 15 16 15 17 18 21 18 27 25 17 11 7 7 13 16 27
17 17 16 16 17 18 17 16 17 19 18 19 24 25 28 23 19 18 20 22 25 30

GFSNIL_925_spd_078.txt.gz
Wind_Speed
18 15 13 13 13 12 14 15 19 25 30 30 33 32 29 27 29 28 28 26 27 24
18 16 14 13 12 11 12 13 18 24 30 32 33 33 31 30 31 32 33 33 30 27
17 15 13 12 13 12 11 12 15 19 25 28 31 30 33 34 32 31 34 33 31 31
15 15 13 12 11 10 9 11 14 15 18 22 26 29 29 31 31 31 24 26 31 35
14 13 13 13 12 11 11 11 13 14 16 18 25 28 28 27 26 30 32 31 25 29
12 11 10 10 10 11 12 11 12 12 13 14 16 22 26 25 22 24 27 32 35 35
9 9 9 9 9 9 9 10 12 12 12 11 12 15 20 20 21 21 23 23 25 28
14 14 12 8 5 7 7 7 8 10 11 12 8 8 14 15 19 22 24 25 27 27
15 15 14 12 12 12 11 7 6 5 4 7 5 2 13 17 17 15 21 25 26 29
15 18 15 12 12 14 13 12 14 14 12 11 10 10 4 9 18 22 24 20 15 16
17 21 14 13 13 14 14 15 15 15 13 12 16 14 8 5 3 2 3 6 9 10
24 20 14 15 14 13 15 17 17 17 16 15 19 23 15 9 7 10 12 13 19 14
18 16 17 14 15 14 16 18 17 18 19 20 20 27 22 15 11 13 13 16 19 23
16 18 17 15 14 14 16 18 18 18 18 20 22 25 26 23 17 14 14 16 19 25

GFSNIL_925_spd_081.txt.gz
Wind_Speed
17 16 13 12 13 13 15 15 16 20 22 27 26 32 29 24 23 23 22 21 19 19
16 14 13 11 11 11 12 13 16 20 19 22 27 29 30 26 23 22 23 22 21 21
17 15 13 12 11 8 9 11 13 18 21 24 27 28 29 30 29 27 27 28 25 24
14 13 12 11 10 9 8 8 12 16 20 25 28 32 31 26 30 30 28 29 31 33
14 13 12 10 9 9 7 6 9 10 15 21 24 26 29 30 29 30 27 26 27 29
12 15 13 11 10 9 8 7 7 8 9 13 14 18 24 26 25 25 28 29 28 28
8 8 7 5 10 10 8 8 8 9 8 8 8 10 14 20 23 24 24 26 24 25
14 15 13 10 6 6 11 13 9 10 8 8 7 4 6 9 10 24 22 15 17 21
18 18 18 17 16 13 12 12 13 15 14 12 10 4 4 7 4 3 2 3 7 8
20 21 20 21 19 19 19 17 17 15 13 15 13 10 6 4 2 2 3 5 8 10
19 22 19 20 26 22 20 22 22 20 17 15 19 12 9 10 7 9 11 12 10 10
19 23 18 17 25 19 20 22 23 22 21 20 22 16 16 13 12 14 16 16 20 15
21 21 20 20 23 19 18 18 19 22 20 21 21 22 21 14 14 16 16 18 20 24
20 22 21 22 22 18 16 17 19 20 21 23 21 25 22 19 16 16 16 17 21 25

GFSNIL_925_spd_084.txt.gz
Wind_Speed
19 19 16 19 18 19 17 14 11 14 22 25 28 31 36 40 32 34 28 26 23 20
18 19 16 16 18 15 14 14 15 15 19 24 22 32 33 32 33 31 31 28 22 16
17 16 14 13 12 15 14 15 15 17 18 18 22 20 26 30 28 27 23 21 22 19
16 16 15 14 13 11 11 14 16 15 18 20 21 22 22 22 25 27 26 22 22 20
15 15 15 13 12 12 14 12 12 14 16 17 19 22 25 27 28 28 28 25 25 25
14 13 12 13 13 13 12 11 11 10 14 17 18 19 22 27 28 28 27 27 28 27
15 14 15 11 11 12 12 11 10 10 11 15 15 15 15 19 22 23 24 25 27 27
15 16 17 19 21 19 17 16 15 16 16 14 12 9 9 10 7 20 21 21 20 15
17 16 18 18 20 22 22 20 21 20 18 15 12 7 7 10 8 10 11 10 9 6
23 22 21 21 22 23 24 22 23 21 19 19 16 12 11 9 9 9 9 9 8 5
24 23 21 25 27 26 28 29 25 23 22 22 23 16 13 13 15 17 17 15 12 10
23 23 21 21 22 25 26 33 30 26 25 25 23 20 16 15 17 20 21 21 20 16
21 28 20 20 21 24 26 27 32 28 26 25 28 23 18 16 20 25 25 26 28 29
20 26 26 22 19 24 26 29 31 25 28 32 28 26 25 22 23 23 24 24 26 26

GFSNIL_925_spd_087.txt.gz
Wind_Speed
27 28 26 27 27 23 20 20 19 21 22 26 29 27 34 32 33 34 31 32 23 26
28 28 24 22 23 21 22 19 16 15 17 23 24 28 31 30 32 35 33 31 23 25
26 21 20 23 21 18 19 18 17 16 17 21 21 24 26 33 29 32 33 30 23 17
26 20 21 19 19 19 16 17 17 17 18 20 17 23 28 27 34 28 28 29 23 22
24 20 20 20 19 18 17 16 15 15 17 17 17 17 18 25 30 29 29 27 23 19
18 19 19 18 16 18 18 14 13 13 13 15 17 17 19 19 27 30 30 29 27 24
17 15 15 17 19 17 17 17 14 13 16 16 15 15 16 17 20 23 25 25 25 24
20 18 20 20 20 20 20 20 19 19 17 16 15 14 14 15 18 16 14 13 14 12
22 21 21 20 21 22 21 21 20 19 17 15 12 13 17 16 17 21 20 20 17 15
21 23 22 21 21 23 23 23 22 22 20 20 17 13 17 18 21 22 20 17 14 12
23 23 24 26 25 24 24 25 26 24 25 26 22 18 20 22 23 23 19 16 14 13
27 23 24 26 27 25 25 26 27 25 26 30 24 19 19 22 26 29 30 25 20 18
26 23 25 26 27 28 27 27 27 28 29 30 30 20 21 22 27 31 30 30 32 32
24 25 29 20 27 30 27 25 29 27 29 30 31 25 23 23 26 27 28 27 28 28

GFSNIL_925_spd_090.txt.gz
Wind_Speed
33 31 29 30 27 23 26 24 24 23 23 26 27 29 32 33 33 32 34 34 32 26
32 30 28 26 25 26 25 24 22 22 24 25 26 29 32 31 32 34 36 35 33 29
31 30 28 27 27 25 21 22 19 20 20 20 22 24 27 27 29 33 31 32 29 29
28 28 29 26 26 21 19 20 19 20 18 16 18 21 21 22 28 32 28 30 30 23
28 27 27 24 19 17 19 19 19 18 17 17 17 15 20 24 25 32 27 30 29 20
24 22 20 18 16 18 16 15 14 12 14 15 15 15 15 21 26 25 29 29 29 24
25 21 19 18 16 14 14 15 14 14 13 13 13 13 13 19 22 26 23 27 28 25
26 25 23 22 19 17 17 13 11 11 11 11 12 12 12 15 19 21 19 20 23 23
22 23 24 25 23 22 17 14 13 12 10 10 8 13 14 17 17 18 20 20 17 13
23 21 19 22 24 24 20 17 16 15 15 16 14 13 18 20 22 23 22 20 18 15
27 25 23 24 24 24 23 22 21 20 18 18 17 17 21 25 25 24 21 18 16 15
27 27 27 27 27 23 26 26 25 24 21 20 19 19 22 26 27 26 23 18 16 18
29 27 31 25 25 27 29 29 27 31 27 22 20 17 20 24 29 32 30 27 21 19
29 27 28 28 24 29 27 32 32 32 32 29 24 20 22 24 29 28 29 26 26 27

GFSNIL_925_spd_093.txt.gz
Wind_Speed
35 31 32 34 32 29 24 22 23 25 25 25 24 25 25 27 28 30 31 29 26 30
27 30 31 31 30 26 23 24 23 26 25 21 22 23 24 26 28 30 32 33 33 29
27 27 28 28 28 24 22 21 22 21 17 18 20 21 24 27 30 33 33 31 32 29
26 28 26 27 25 22 21 20 20 17 16 17 20 22 23 25 27 28 28 34 36 32
27 26 28 24 24 22 20 17 15 13 12 13 12 16 17 18 18 23 24 30 31 34
23 27 26 26 23 21 17 14 11 8 10 12 15 16 16 18 20 21 26 29 27 31
23 26 25 20 21 19 17 15 12 11 9 10 11 13 14 13 17 19 21 28 31 26
17 23 28 25 23 20 18 17 15 11 9 6 5 7 10 10 15 17 21 20 22 27
14 17 24 24 22 21 18 16 15 11 8 4 2 4 9 11 17 19 20 19 17 17
27 24 25 22 21 21 19 16 16 14 11 10 7 3 9 15 17 19 18 19 17 15
22 26 26 25 26 23 21 20 18 17 16 15 14 10 12 17 18 18 16 15 15 17
20 24 24 28 27 26 27 27 24 21 19 19 17 14 17 18 22 23 20 17 16 17
30 29 22 27 26 25 29 30 28 28 25 23 23 18 17 19 23 27 26 23 22 19
29 29 25 26 24 26 27 31 29 31 29 27 25 23 23 24 27 28 26 24 26 25

GFSNIL_925_spd_096.txt.gz
Wind_Speed
26 25 25 24 26 29 31 28 29 30 28 24 23 23 23 26 26 27 29 26 27 26
27 27 25 22 21 21 25 25 24 26 24 24 26 24 26 22 23 26 28 27 31 31
22 23 23 17 24 26 23 21 21 24 24 27 24 24 21 21 24 25 28 28 32 32
22 22 18 19 23 24 22 21 23 24 26 23 21 20 19 21 22 24 25 26 28 31
18 15 16 28 27 24 21 21 23 22 20 18 18 17 17 20 20 24 25 28 31 34
4 10 19 28 25 22 21 19 17 16 14 14 12 10 13 15 15 19 24 26 30 32
11 13 21 25 25 23 20 18 16 14 13 12 11 8 9 11 12 15 17 19 28 29
19 14 9 25 28 24 23 21 18 16 12 8 5 4 7 7 10 12 10 13 19 26
24 20 19 17 27 26 21 19 17 13 11 8 5 1 5 6 8 11 13 14 14 16
29 27 28 24 20 25 22 20 19 16 13 12 9 4 3 9 11 13 13 14 15 15
30 29 28 23 28 25 24 24 21 18 16 16 15 10 9 13 14 15 13 13 12 15
30 27 26 29 27 27 28 28 27 24 22 22 19 14 15 17 20 22 21 17 15 15
29 28 35 27 23 26 28 28 28 29 28 25 25 19 18 19 23 27 27 24 23 20
28 29 28 30 31 24 29 29 26 30 31 31 29 24 22 22 25 29 26 27 28 26

GFSNIL_925_spd_099.txt.gz
Wind_Speed
27 25 25 27 26 27 25 26 28 36 37 37 31 29 29 29 26 27 29 27 27 26
24 24 24 22 23 22 17 20 29 32 34 34 30 31 26 26 26 27 28 27 28 28
20 23 23 20 19 23 18 16 19 24 29 30 27 23 25 25 24 24 24 24 27 28
17 22 22 21 21 24 23 13 19 25 26 25 26 23 24 25 24 23 22 23 25 29
8 13 15 20 21 28 22 17 24 20 22 23 25 22 22 22 21 21 21 22 24 31
13 1 12 21 23 25 26 24 21 23 22 21 19 18 19 20 18 18 20 21 25 26
22 14 5 12 20 26 28 27 21 19 17 14 14 14 14 15 16 15 17 20 20 26
20 17 15 11 10 14 27 28 24 21 18 16 13 13 13 13 12 12 14 12 13 18
26 24 21 22 16 16 25 27 25 22 18 13 7 8 11 10 9 10 8 6 5 8
24 24 26 25 30 23 18 28 24 21 16 14 8 2 4 10 10 9 8 8 8 9
28 27 26 32 28 26 25 22 27 24 19 18 15 10 7 13 14 15 13 11 12 12
29 29 29 32 29 32 25 26 30 29 27 25 19 13 12 16 20 22 22 18 16 14
29 30 31 32 29 28 31 30 29 32 32 30 26 17 14 18 23 27 28 27 25 20
28 28 29 31 31 32 30 31 30 30 35 37 32 26 20 20 24 24 26 26 26 27

GFSNIL_925_spd_102.txt.gz
Wind_Speed
27 31 29 26 21 24 25 29 27 36 41 32 39 29 29 29 28 27 29 28 28 25
22 25 21 22 23 25 26 26 25 26 25 24 22 29 32 30 26 24 29 29 30 28
12 16 19 25 24 27 26 22 22 22 21 24 30 31 31 24 24 26 27 26 27 26
9 13 17 21 21 27 25 25 28 25 23 25 23 25 23 23 23 23 25 25 26 27
19 11 14 20 25 28 27 27 29 35 28 18 22 20 20 21 20 24 25 23 25 26
25 20 15 4 15 22 21 24 23 23 27 27 21 20 22 24 25 25 24 25 24 24
27 24 20 12 3 12 16 16 18 19 23 25 23 21 23 23 21 21 18 18 19 20
27 30 20 16 12 7 11 15 19 24 26 26 24 19 18 19 18 16 15 17 20 20
32 26 24 22 18 19 12 12 19 24 22 20 15 14 18 16 13 14 13 13 11 11
30 27 29 26 25 26 27 24 18 19 23 19 12 8 10 14 12 11 9 6 4 4
33 32 31 26 26 28 29 32 31 28 23 22 17 12 11 13 12 12 10 8 6 4
30 29 29 30 27 26 28 32 34 32 23 29 23 15 16 16 18 18 18 15 12 9
27 29 28 27 28 26 27 32 33 37 29 32 29 21 20 19 21 23 21 21 20 17
29 28 28 27 27 27 28 31 34 33 34 35 34 31 24 21 24 22 22 22 24 25

GFSNIL_925_spd_105.txt.gz
Wind_Speed
27 26 31 38 34 27 25 25 27 36 36 37 33 26 26 28 33 29 28 26 24 24
29 26 31 37 30 28 24 23 28 30 33 29 28 27 26 27 31 31 30 25 26 22
33 33 24 26 26 25 23 25 27 30 34 30 26 26 26 28 28 31 27 22 22 21
37 36 26 13 19 23 24 26 25 26 26 30 33 32 25 21 25 25 20 18 18 21
35 35 29 19 16 16 21 24 24 23 25 27 29 26 28 19 14 25 20 19 19 22
34 33 31 26 17 13 18 18 21 22 24 27 28 30 30 26 47 39 26 20 21 22
32 31 29 26 23 17 4 18 23 23 20 20 23 26 30 28 27 22 19 21 22 22
29 27 26 29 26 22 19 11 6 13 16 18 20 20 21 23 22 20 19 14 11 14
32 32 36 31 27 28 25 24 19 13 9 13 10 17 20 19 16 14 14 12 10 11
32 33 35 32 32 34 29 28 32 29 17 13 10 8 17 18 16 12 9 6 5 7
30 30 30 30 30 29 31 33 32 34 31 24 21 13 17 18 17 15 11 7 3 2
30 29 31 31 30 33 34 31 31 34 36 25 34 21 16 23 22 21 19 15 10 5
28 29 30 30 29 29 30 29 30 33 38 30 38 32 21 25 25 27 23 21 20 20
30 29 29 27 32 27 26 27 30 32 36 35 40 37 33 26 30 24 24 24 25 23

GFSNIL_925_spd_111.txt.gz
Wind_Speed
24 25 25 26 30 33 32 34 36 35 34 35 30 34 36 39 42 43 37 33 32 31
27 27 28 30 31 31 31 33 37 37 35 34 38 32 36 39 43 43 45 38 30 26
28 29 29 29 29 31 31 32 29 26 32 34 40 38 39 40 36 36 31 37 27 29
30 30 30 28 28 30 31 30 27 23 30 33 37 33 38 35 32 32 33 36 40 41
29 29 28 28 29 30 31 30 28 23 21 27 30 31 36 29 29 31 32 37 39 42
29 30 29 30 31 30 33 33 33 25 21 15 14 29 32 31 31 29 32 34 34 31
30 30 29 29 31 32 34 35 36 32 26 22 16 0 7 26 26 26 26 27 29 21
29 28 29 31 32 33 35 35 32 30 31 28 32 24 10 13 18 25 22 18 19 16
27 28 30 31 34 36 37 34 34 34 34 36 30 32 14 8 23 18 18 15 13 16
25 28 30 31 33 34 36 34 36 37 36 38 40 36 25 29 22 21 20 19 17 14
28 30 31 33 34 33 31 33 38 40 39 39 44 39 33 26 40 31 28 17 14 11
29 29 31 32 33 32 33 35 36 34 40 42 47 46 35 31 39 26 37 33 27 13
27 30 31 32 31 29 29 31 32 35 39 36 40 48 42 38 32 32 34 32 30 29
30 30 34 31 30 29 29 30 31 32 37 40 41 40 41 42 37 30 28 27 29 31

GFSNIL_925_spd_114.txt.gz
Wind_Speed
20 21 22 23 24 26 25 27 31 31 30 35 36 34 32 32 35 33 36 33 30 34
22 23 24 26 25 25 26 28 31 35 35 36 33 32 32 30 35 36 39 37 43 40
24 25 25 25 25 27 30 31 34 35 34 34 32 34 33 31 31 32 37 39 38 37
25 24 25 25 27 28 29 31 30 33 33 30 31 29 32 32 29 31 32 30 34 37
23 25 26 26 27 30 30 29 29 30 31 27 29 23 27 33 29 28 29 31 33 37
26 27 27 29 30 31 31 30 31 30 30 31 30 25 13 19 24 28 31 33 35 36
26 27 28 29 32 32 31 31 32 31 30 30 30 29 23 12 13 13 28 32 37 32
26 27 29 30 30 31 33 33 33 32 31 34 28 33 28 14 13 23 33 24 25 27
25 27 27 31 33 32 32 33 34 36 34 35 34 34 33 13 13 11 18 13 18 11
27 28 30 30 30 33 34 35 34 35 35 38 40 38 35 33 31 32 29 29 14 10
28 27 28 29 30 33 30 31 32 36 37 38 47 45 36 35 37 37 39 40 31 20
27 28 28 29 27 28 30 31 32 34 38 38 39 46 44 35 30 32 37 38 36 35
25 29 29 29 26 28 30 29 30 32 36 35 37 44 44 38 33 33 28 31 36 36
29 27 28 27 31 31 29 28 30 31 33 37 37 39 40 40 36 29 27 29 31 33

GFSNIL_925_spd_117.txt.gz
Wind_Speed
17 17 16 18 20 20 21 23 24 25 26 28 27 28 29 29 27 29 30 33 36 33
20 21 21 20 18 20 21 23 25 26 25 27 27 26 29 28 28 27 30 32 35 37
19 19 21 20 21 23 23 25 25 27 28 27 27 26 28 29 29 28 28 31 31 33
22 22 21 22 23 24 26 26 26 27 26 26 28 28 30 30 26 27 28 28 30 33
24 22 23 25 26 28 27 28 27 27 26 28 28 30 30 31 26 25 26 29 31 34
23 24 25 25 26 27 29 29 30 30 30 31 30 32 34 33 31 24 25 29 28 32
24 23 26 26 27 28 29 29 30 31 32 34 30 35 37 35 27 25 21 17 25 29
23 24 25 25 26 28 29 30 31 33 33 36 35 39 41 33 28 26 19 9 10 13
23 24 25 25 29 27 31 32 34 36 35 37 40 47 44 39 32 30 27 27 18 14
27 27 29 29 30 32 32 31 34 37 36 36 44 51 46 40 34 32 32 33 32 27
26 28 29 30 30 31 30 30 29 34 37 37 43 50 49 41 37 34 33 35 36 31
26 27 31 31 29 29 28 30 32 34 37 39 40 48 49 44 37 34 34 36 40 40
23 28 30 30 31 31 31 30 28 31 35 36 39 43 44 41 34 34 33 33 35 41
26 26 29 26 28 29 27 28 30 31 33 38 39 41 40 39 34 30 28 30 33 36

GFSNIL_925_spd_120.txt.gz
Wind_Speed
21 19 18 20 20 18 19 21 23 24 23 21 22 23 21 21 23 23 26 27 34 31
20 20 23 23 21 21 21 20 21 20 21 21 21 23 20 21 22 24 25 30 30 31
21 24 24 24 24 23 22 23 23 23 22 21 22 20 23 22 24 23 24 27 28 29
22 22 21 20 21 22 22 23 23 24 24 23 22 24 24 24 23 26 25 22 29 27
22 21 22 25 24 24 22 22 22 23 25 24 25 24 24 23 23 23 23 25 23 28
22 24 26 24 25 25 25 25 26 26 28 28 29 29 28 24 25 25 23 24 25 21
22 24 25 26 25 27 27 27 28 29 28 29 32 32 32 28 30 30 29 29 28 25
24 24 24 23 25 25 26 27 29 29 30 34 39 41 38 31 30 32 33 35 34 30
23 23 24 25 27 30 31 30 32 33 34 38 41 45 36 33 32 34 35 36 38 36
21 23 25 27 29 32 32 30 30 34 35 35 42 45 38 33 31 32 35 36 39 36
23 25 27 29 31 32 30 30 29 33 34 34 38 43 39 29 30 30 35 38 38 38
23 25 27 29 29 29 30 33 32 30 33 35 37 41 40 35 30 32 33 35 38 43
20 26 27 26 27 29 29 30 31 30 31 31 34 40 40 40 35 32 32 33 36 41
22 23 27 28 31 29 27 27 27 26 28 32 35 38 41 40 38 32 29 32 35 38

GFSNIL_925_spd_123.txt.gz
Wind_Speed
14 15 14 17 18 17 17 17 19 19 18 18 18 20 18 18 18 18 21 24 26 26
17 18 19 17 16 16 16 17 19 19 20 19 18 18 18 19 19 19 21 22 26 28
14 15 17 16 17 17 19 20 20 21 22 21 20 19 18 18 19 18 20 20 24 26
16 19 16 18 18 20 20 21 22 23 23 24 23 23 21 19 18 19 19 19 19 23
14 15 17 18 20 21 22 21 23 25 26 29 28 27 22 19 18 19 20 20 18 18
16 17 18 18 18 19 20 21 23 26 30 29 31 29 24 20 21 19 20 21 19 21
17 17 18 17 18 20 20 21 24 27 29 30 33 31 28 24 24 24 23 25 23 26
15 15 17 18 19 19 20 23 25 26 30 31 35 35 31 24 25 26 26 29 28 27
17 18 20 19 20 21 21 23 25 27 27 32 34 36 30 26 24 27 29 32 32 32
18 20 21 20 21 22 23 20 23 25 27 30 36 37 32 27 26 27 29 31 37 36
17 17 18 20 22 21 20 22 23 25 26 27 33 37 35 28 27 28 31 34 39 37
18 18 18 21 19 19 20 22 23 24 27 30 34 38 39 33 29 30 30 31 33 39
16 18 20 18 19 19 20 20 20 22 27 26 30 35 36 35 29 26 27 28 31 37
13 16 17 18 19 20 21 19 21 22 24 28 30 33 36 36 32 27 25 27 31 34